Lovelock, NV

12:41 PM PST on November 19, 2017 (GMT -0800)
Derby

Weather History for KLOL - March, 2013

Change the Weather History Date:

Friday, March 15, 2013

  Actual Average Record
Temperature  
Mean Temperature 48 °F -  
Max Temperature 72 °F 57 °F 75 °F (2007)
Min Temperature 25 °F 25 °F 10 °F (2002)
Degree Days  
Heating Degree Days 16    
Moisture  
Dew Point 17 °F    
Average Humidity 33    
Maximum Humidity 61    
Minimum Humidity 11    
Precipitation  
Precipitation 0.00 in - - ()
Sea Level Pressure  
Sea Level Pressure 30.09 in    
Wind  
Wind Speed 6 mph (WNW)    
Max Wind Speed 13 mph    
Max Gust Speed -    
Visibility 10 miles    
Events      
Averages and records for this station are not official NWS values.
T = Trace of Precipitation, MM = Missing Value Source: NWS Daily Summary

Daily Weather History Graph

Daily Weather History Graph

Search for Another Location

Airport or City:

Trip Planner

Search our weather history database for the weather conditions in past years. The results will help you decide how hot, cold, wet, or windy it might be!

Date:

Astronomy

Mar. 15, 2013 Rise Set
Actual Time 7:05 AM PDT 7:01 PM PDT
Civil Twilight 6:38 AM PDT 7:28 PM PDT
Nautical Twilight 6:06 AM PDT 8:00 PM PDT
Astronomical Twilight 5:34 AM PDT 8:32 PM PDT
Moon 8:58 AM PDT (3/15) 11:20 PM PDT (3/15)
Length of Visible Light 12h 50m
Length of Day
11h 56m
Waxing Crescent, 16% of the Moon is Illuminated
Mar 15
Waxing Crescent
Mar 19
First Quarter
Mar 27
Full
Apr 2
Last Quarter
Apr 10
New

Hourly Weather History & Observations

Time (PDT) Temp. Windchill Dew Point Humidity Pressure Visibility Wind Dir Wind Speed Gust Speed Precip Events Conditions
12:53 AM 39.0 °F 32.8 °F 19.0 °F 45% 30.12 in 10.0 mi WNW 9.2 mph - N/A   Clear
1:53 AM 34.0 °F 31.0 °F 18.0 °F 52% 30.13 in 10.0 mi East 3.5 mph - N/A   Clear
2:53 AM 30.9 °F 22.8 °F 18.0 °F 59% 30.13 in 10.0 mi WNW 9.2 mph - N/A   Clear
3:53 AM 28.9 °F 21.1 °F 16.0 °F 58% 30.13 in 10.0 mi SE 8.1 mph - N/A   Clear
4:53 AM 26.1 °F - 14.0 °F 60% 30.14 in 10.0 mi Calm Calm - N/A   Clear
5:53 AM 27.0 °F 21.6 °F 15.1 °F 61% 30.15 in 10.0 mi WNW 4.6 mph - N/A   Clear
6:53 AM 25.0 °F 20.7 °F 12.9 °F 60% 30.17 in 10.0 mi ESE 3.5 mph - N/A   Clear
7:53 AM 30.0 °F 24.1 °F 18.0 °F 61% 30.18 in 10.0 mi NW 5.8 mph - N/A   Clear
8:53 AM 39.0 °F 34.8 °F 21.0 °F 49% 30.19 in 10.0 mi ESE 5.8 mph - N/A   Clear
9:53 AM 46.9 °F - 23.0 °F 39% 30.16 in 10.0 mi Calm Calm - N/A   Clear
10:53 AM 55.0 °F - 23.0 °F 29% 30.14 in 10.0 mi Calm Calm - N/A   Clear
11:53 AM 61.0 °F - 21.0 °F 21% 30.12 in 10.0 mi Calm Calm - N/A   Clear
12:53 PM 64.9 °F - 23.0 °F 20% 30.09 in 10.0 mi WNW 5.8 mph - N/A   Clear
1:53 PM 68.0 °F - 12.0 °F 11% 30.06 in 10.0 mi SSW 6.9 mph - N/A   Clear
2:53 PM 68.0 °F - 14.0 °F 12% 30.03 in 10.0 mi Variable 4.6 mph - N/A   Clear
3:53 PM 72.0 °F - 15.1 °F 11% 30.01 in 10.0 mi SW 5.8 mph - N/A   Clear
4:53 PM 70.0 °F - 15.1 °F 12% 30.01 in 10.0 mi SW 5.8 mph - N/A   Clear
5:53 PM 68.0 °F - 10.0 °F 11% 30.02 in 10.0 mi WNW 8.1 mph - N/A   Clear
6:53 PM 63.0 °F - 10.0 °F 13% 30.04 in 10.0 mi WNW 10.4 mph - N/A   Clear
7:53 PM 55.9 °F - 12.0 °F 18% 30.06 in 10.0 mi NW 10.4 mph - N/A   Clear
8:53 PM 55.9 °F - 14.0 °F 19% 30.04 in 10.0 mi NW 12.7 mph - N/A   Clear
9:53 PM 57.0 °F - 18.0 °F 22% 30.02 in 10.0 mi NW 11.5 mph - N/A   Clear
10:53 PM 55.9 °F - 19.0 °F 24% 30.03 in 10.0 mi East 10.4 mph - N/A   Clear
11:53 PM 55.9 °F - 21.0 °F 26% 30.00 in 10.0 mi North 6.9 mph - N/A   Clear